User: anonymous   Login
Location: Newark
(43.4306°N, 0.3089°E)
Time: 20:34:06
(UTC+00:00)
Language:

S-56A Canister/Altair - Orbit

View from above orbital plane
View from above orbital plane
View from above satellite
View from above satellite

Ground track
Ground track

The orbit data is extracted from the following two-line orbital elements,

1    82U 61004B   19230.51101055 -.00000037 +00000-0 +21675-4 0  9990
2    82 038.8533 243.8115 1174238 056.6251 314.1334 12.26046138770508
Epoch (UTC): 18 August 2019 12:15:51
Eccentricity: 0.1174238
inclination: 38.8533°
perigee height: 633 km
apogee height: 2499 km
right ascension of ascending node: 243.8115°
argument of perigee: 56.6251°
revolutions per day: 12.26046138
mean anomaly at epoch: 314.1334°
orbit number at epoch: 77050

The dashed part of the orbit path shows where the satellite is in the earth's shadow,  

DLR